Home   Weather   Horten   Past weeks

Flag for Norway Past Weather in Horten, Norway — Yesterday and Last 2 Weeks

Now
57 °F

Scattered clouds.


Feels Like: 54 °F
Forecast: 57 / 67 °F
Wind: 14 mph from Southeast

Location: Oseberg

Current Time: Jul 26, 2017 at 5:01:27 pm

Latest Report: Jul 26, 2017 at 4:20 pm


Visibility: N/A

Pressure: 29.65 "Hg

Humidity: 82%

Dew Point: 52 °F

Location of HortenLocation

Past Weather in Horten — Graph

°F

Horten Temperature Yesterday

Maximum temperature yesterday: 59 °F (at 2:20 pm)
Minimum temperature yesterday: 54 °F (at 12:50 am)
Average temperature yesterday: 57 °F

High & Low Weather Summary for the Past Weeks

 TemperatureHumidityPressure
High66 °F (Jul 20, 10:50 pm)100% (Jul 15, 8:50 pm)30.15 "Hg (Jul 15, 8:50 pm)
Low52 °F (Jul 12, 1:50 am)49% (Jul 20, 8:50 am)29.68 "Hg (Jul 15, 8:50 pm)
Average56 °F84%29.93 "Hg
* Reported Jul 11 3:20 pm — Jul 26 3:20 pm, Horten. Weather by CustomWeather, © 2017

Note: Actual official high and low records may vary slightly from our data, if they occured in-between our weather recording intervals... More about our weather records

Advertising

Horten Weather History for the Previous 24 Hours

Scroll right to see more
 ConditionsComfort  
Time TempWeatherWind HumidityBarometerVisibility
3:20 pm
Wed, Jul 26
57 °FBroken clouds.9 mph82%29.71 "HgN/A
2:50 pm55 °FPartly sunny.8 mph94%29.71 "HgN/A
2:20 pm57 °FPartly sunny.8 mph82%29.71 "HgN/A
1:50 pm55 °FPartly sunny.10 mph94%29.71 "HgN/A
1:20 pm57 °FScattered showers. Partly sunny.10 mph94%29.71 "HgN/A
12:50 pm57 °FPartly sunny.15 mph94%29.71 "HgN/A
12:20 pm57 °FPartly sunny.14 mph94%29.71 "HgN/A
11:50 am57 °FBroken clouds.14 mph94%29.74 "HgN/A
11:20 am57 °FBroken clouds.12 mph94%29.74 "HgN/A
10:50 am57 °FBroken clouds.10 mph88%29.74 "HgN/A
10:20 am57 °FBroken clouds.6 mph88%29.74 "HgN/A
9:50 am57 °FPartly sunny.9 mph88%29.77 "HgN/A
9:20 am57 °FPartly sunny.9 mph88%29.77 "HgN/A
8:50 am57 °FPartly sunny.10 mph88%29.77 "HgN/A
7:50 am57 °FPartly sunny.8 mph88%29.77 "HgN/A
7:20 am57 °FPartly sunny.2 mph88%29.77 "HgN/A
6:50 am57 °FPartly sunny.5 mph88%29.80 "HgN/A
5:48 am55 °FPartly sunny.10 mph94%29.80 "HgN/A
4:50 am55 °FOvercast.14 mph94%29.83 "HgN/A
2:50 am55 °FOvercast.12 mph94%29.86 "HgN/A
12:50 am57 °FPassing clouds.13 mph88%29.89 "HgN/A
11:50 pm
Tue, Jul 25
57 °FOvercast.13 mph88%29.89 "HgN/A
10:50 pm57 °FPassing clouds.15 mph88%29.92 "HgN/A
9:50 pm57 °FPartly sunny.15 mph88%29.92 "HgN/A
8:50 pm57 °FPartly sunny.14 mph88%29.92 "HgN/A
7:50 pm57 °FPartly sunny.14 mph88%29.95 "HgN/A
6:50 pm57 °FPartly sunny.14 mph88%29.95 "HgN/A
6:20 pm57 °FPartly sunny.13 mph88%29.95 "HgN/A
5:50 pm59 °FPartly sunny.12 mph82%29.95 "HgN/A
5:20 pm59 °FPartly sunny.10 mph77%29.95 "HgN/A
Weather by CustomWeather, © 2017

See weather overviewHow to use our weather pages